Weather History for Colorado Springs, CO

Change the Weather History Date:

Thursday, February 23, 2012

  Actual Average Record
Temperature  
Mean Temperature 34 °F 34 °F  
Max Temperature 53 °F 46 °F 72 °F (2002)
Min Temperature 15 °F 21 °F -7 °F (1913)
Degree Days  
Heating Degree Days 31 31  
Month to date heating degree days 768 765  
Since 1 July heating degree days 4041 4408  
Cooling Degree Days 0 0  
Month to date cooling degree days 0 0  
Year to date cooling degree days 0 0  
Moisture  
Dew Point 18 °F    
Average Humidity 52    
Maximum Humidity 81    
Minimum Humidity 22    
Precipitation  
Precipitation 0.07 in 0.02 in 0.21 in (1965)
Month to date precipitation 0.29 0.26  
Year to date precipitation 0.31 0.58  
Snow  
Snow 1.00 in 0.10 in 2.30 in (1997)
Month to date snowfall 4.2 4.0  
Since 1 July snowfall 21.0 23.1  
Snow Depth 0.00 in    
Sea Level Pressure  
Sea Level Pressure 29.77 in    
Wind  
Wind Speed 19 mph (North)    
Max Wind Speed 44 mph    
Max Gust Speed 53 mph    
Visibility 7 miles    
Events Fog , Snow    
T = Trace of Precipitation, MM = Missing Value Source: NWS Daily Summary

Daily Weather History Graph

Daily Weather History Graph

Search for Another Location

Airport:

Trip Planner

Search our weather history database for the weather conditions in past years. The results will help you decide how hot, cold, wet, or windy it might be!

Date:

Astronomy

Feb. 23, 2012 Rise Set
Actual Time 6:40 AM MST 5:44 PM MST
Civil Twilight 6:13 AM MST 6:11 PM MST
Nautical Twilight 5:42 AM MST 6:42 PM MST
Astronomical Twilight 5:11 AM MST 7:13 PM MST
Moon 7:09 AM MST (2/23) 7:50 PM MST (2/23)
Length of Visible Light 11h 58m
Length of Day
11h 04m
Waxing Crescent, 3% of the Moon is Illuminated
Feb 23
Waxing Crescent
Feb 29
First Quarter
Mar 8
Full
Mar 14
Last Quarter
Mar 22
New

Hourly Weather History & Observations

Time (MST) Temp. Windchill Dew Point Humidity Pressure Visibility Wind Dir Wind Speed Gust Speed Precip Events Conditions
12:54 AM 51.1 °F - 18.0 °F 27% 29.30 in 10.0 mi WNW 24.2 mph 33.4 mph N/A   Clear
1:54 AM 50.0 °F - 19.0 °F 29% 29.31 in 10.0 mi NW 21.9 mph 31.1 mph N/A   Clear
2:54 AM 48.9 °F - 19.9 °F 32% 29.29 in 10.0 mi NW 23.0 mph 35.7 mph N/A   Partly Cloudy
3:54 AM 48.0 °F - 19.9 °F 33% 29.34 in 10.0 mi NNW 19.6 mph 26.5 mph N/A   Partly Cloudy
4:11 AM 33.8 °F 17.9 °F 21.2 °F 60% 29.52 in 10.0 mi North 42.6 mph 52.9 mph N/A   Mostly Cloudy
4:54 AM 30.0 °F 13.6 °F 21.9 °F 72% 29.51 in 5.0 mi North 36.8 mph 46.0 mph 0.00 in Snow Light Snow
5:11 AM 28.4 °F 12.5 °F 21.2 °F 74% 29.60 in 2.5 mi North 31.1 mph 41.4 mph N/A Snow Light Snow
5:15 AM 28.4 °F 12.7 °F 21.2 °F 74% 29.60 in 1.8 mi North 29.9 mph 41.4 mph 0.00 in Snow Light Snow
5:54 AM 27.0 °F 12.5 °F 21.9 °F 81% 29.60 in 0.8 mi North 23.0 mph 35.7 mph 0.01 in Snow Light Snow
5:57 AM 26.6 °F 13.1 °F 21.2 °F 80% 29.62 in 0.2 mi North 19.6 mph 35.7 mph 0.00 in Snow Heavy Snow
6:07 AM 26.6 °F 10.8 °F 23.0 °F 86% 29.63 in 0.2 mi North 27.6 mph 31.1 mph 0.00 in Snow Heavy Snow
6:51 AM 26.6 °F 13.4 °F 21.2 °F 80% 29.65 in 0.5 mi NNW 18.4 mph 25.3 mph 0.06 in Fog , Snow Light Snow
6:54 AM 26.1 °F 12.3 °F 21.9 °F 84% 29.62 in 0.8 mi NNW 19.6 mph - 0.06 in Snow Light Snow
7:38 AM 26.6 °F 14.7 °F 21.2 °F 80% 29.67 in 1.0 mi NNW 15.0 mph 20.7 mph 0.00 in Snow Light Snow
7:54 AM 28.0 °F 14.9 °F 21.0 °F 75% 29.65 in 2.5 mi NNW 19.6 mph 26.5 mph 0.00 in Snow Light Snow
8:26 AM 28.4 °F 15.8 °F 19.4 °F 69% 29.69 in 5.0 mi North 18.4 mph 32.2 mph 0.00 in Snow Light Snow
8:54 AM 27.0 °F 13.9 °F 18.0 °F 69% 29.70 in 10.0 mi North 18.4 mph 28.8 mph 0.00 in   Mostly Cloudy
9:54 AM 28.0 °F 13.0 °F 18.0 °F 66% 29.70 in 10.0 mi North 26.5 mph 32.2 mph N/A   Mostly Cloudy
10:54 AM 28.0 °F 13.6 °F 17.1 °F 63% 29.73 in 10.0 mi North 24.2 mph 34.5 mph N/A   Mostly Cloudy
11:54 AM 28.9 °F 14.3 °F 17.1 °F 61% 29.76 in 10.0 mi North 26.5 mph 33.4 mph N/A   Mostly Cloudy
12:54 PM 30.9 °F 17.8 °F 18.0 °F 59% 29.75 in 10.0 mi North 23.0 mph 31.1 mph N/A   Mostly Cloudy
1:54 PM 30.0 °F 16.0 °F 17.1 °F 59% 29.80 in 10.0 mi North 25.3 mph 32.2 mph N/A   Mostly Cloudy
2:54 PM 27.0 °F 13.2 °F 16.0 °F 63% 29.86 in 10.0 mi NNE 20.7 mph 34.5 mph 0.00 in Snow Light Snow
3:54 PM 27.0 °F 12.8 °F 15.1 °F 61% 29.89 in 10.0 mi North 21.9 mph 31.1 mph 0.00 in Snow Light Snow
4:54 PM 26.1 °F 11.6 °F 12.9 °F 58% 30.02 in 9.0 mi North 21.9 mph - 0.00 in Snow Light Snow
5:54 PM 24.1 °F 13.7 °F 12.9 °F 62% 30.08 in 10.0 mi North 10.4 mph - 0.00 in   Mostly Cloudy
6:44 PM 24.8 °F 12.4 °F 17.6 °F 74% 29.99 in 1.8 mi NNE 15.0 mph - 0.00 in Snow Light Snow
6:54 PM 23.0 °F 11.7 °F 18.0 °F 81% 30.14 in 2.0 mi NNE 11.5 mph - 0.00 in Snow Light Snow
7:05 PM 23.0 °F 12.4 °F 17.6 °F 80% 30.00 in 6.0 mi NNE 10.4 mph - 0.00 in Snow Light Snow
7:23 PM 21.2 °F 10.1 °F 15.8 °F 80% 30.01 in 10.0 mi NNE 10.4 mph - 0.00 in   Mostly Cloudy
7:54 PM 19.0 °F 9.0 °F 12.0 °F 74% 30.18 in 10.0 mi North 8.1 mph - 0.00 in   Scattered Clouds
8:54 PM 21.0 °F 12.4 °F 12.9 °F 71% 30.19 in 10.0 mi NW 6.9 mph - N/A   Partly Cloudy
9:54 PM 19.0 °F 11.1 °F 12.0 °F 74% 30.20 in 10.0 mi NNW 5.8 mph - N/A   Clear
10:54 PM 15.1 °F 7.7 °F 10.0 °F 80% 30.23 in 10.0 mi North 4.6 mph - N/A   Clear
11:54 PM 17.1 °F 5.8 °F 8.1 °F 68% 30.22 in 10.0 mi NNW 9.2 mph - N/A   Clear